Вернуться в каталог

STARLINK-34064

АктивенСвязьVLEO
NORAD 64114·PAYLOAD·🇺🇸 United States

Запущен May 23, 2025 с Vandenberg Space Force Base

Loading…

Ближайшие Пролёты (ближайшие 24 часа)

TLE

СвежийSource: CelesTrak SupGP

Эпоха: Sep 15, 2026, 02:30 UTC

1 64114C 25110U   26258.10465278 -.00047181  00000+0 -15172-2 0  2589
2 64114  53.1575 225.7111 0001336  89.4308 147.7922 15.31725102    18

Отслеживайте STARLINK-34064 в реальном времени с AllMySat

Download on the App Store